Location: Country Manor
(30.3035°N, 89.7545°W)
Time: 05:47:51
(UTC+00:00)

Daily predictions for brighter satellites

Satellite Brightness Start Highest point End
(mag) Time Altitude Azimuth Time Altitude Azimuth Time Altitude Azimuth
Okean 3 3.8 01:21:06 10° SSE 01:25:12 46° E 01:29:19 10° NNE
HJ-1C 3.9 01:23:12 10° S 01:26:26 59° W 01:29:42 10° NNW
H-2A R/B 2.1 01:22:21 10° SSE 01:27:21 70° ENE 01:32:33 10° N
NOSS 2-2 (D) 3.0 01:24:09 10° SSW 01:27:49 62° ESE 01:31:21 10° NE
Meteor 1-4 Rocket 3.5 01:27:51 10° SSW 01:31:11 49° W 01:34:34 10° N
Orbus 7S 3.2 01:30:44 10° WSW 01:33:11 45° S 01:37:07 10° E
SL-4 R/B 0.8 01:34:19 10° NNW 01:37:07 73° ENE 01:39:39 10° SSE
STARLINK-1444 2.8 01:35:18 10° SW 01:37:18 50° NW 01:39:17 10° NNE
BREEZE-M DEB 1.9 01:34:58 10° SW 01:37:31 69° NW 01:39:41 10° NE
Cosmos 1833 Rocket 2.8 01:32:06 10° NNW 01:37:40 63° ENE 01:43:13 10° SSE
STARLINK-1452 2.9 01:35:55 10° SW 01:37:55 48° NW 01:39:54 10° NNE
FREGAT/IRIS 2.4 01:36:33 10° SSE 01:39:08 53° ENE 01:41:45 10° N
STARLINK-1450 3.0 01:37:14 10° WSW 01:39:10 44° NW 01:41:04 10° NNE
STARLINK-1436 (VISORSAT) 3.0 01:37:16 10° WSW 01:39:14 44° NW 01:41:09 10° NNE
STARLINK-1392 3.0 01:37:21 10° WSW 01:39:18 44° NW 01:41:12 10° NNE
STARLINK-1399 3.0 01:37:22 10° WSW 01:39:18 44° NW 01:41:13 10° NNE
STARLINK-1398 3.0 01:37:19 10° WSW 01:39:18 45° NW 01:41:14 10° NNE
STARLINK-1414 3.0 01:37:20 10° WSW 01:39:18 44° NW 01:41:14 10° NNE
STARLINK-1415 3.0 01:37:22 10° WSW 01:39:18 44° NW 01:41:13 10° NNE
STARLINK-1416 3.0 01:37:21 10° WSW 01:39:18 44° NW 01:41:15 10° NNE
STARLINK-1394 3.0 01:37:23 10° WSW 01:39:19 44° NW 01:41:13 10° NNE
STARLINK-1395 3.0 01:37:23 10° WSW 01:39:19 44° NW 01:41:14 10° NNE
STARLINK-1393 3.0 01:37:23 10° WSW 01:39:19 44° NW 01:41:14 10° NNE
STARLINK-1408 3.0 01:37:22 10° WSW 01:39:20 44° NW 01:41:16 10° NNE
STARLINK-1396 3.0 01:37:24 10° WSW 01:39:20 44° NW 01:41:14 10° NNE
STARLINK-1397 3.0 01:37:24 10° WSW 01:39:20 44° NW 01:41:15 10° NNE
STARLINK-1401 3.0 01:37:24 10° WSW 01:39:20 44° NW 01:41:15 10° NNE
STARLINK-1419 3.0 01:37:23 10° WSW 01:39:21 44° NW 01:41:17 10° NNE
STARLINK-1404 3.0 01:37:25 10° WSW 01:39:21 44° NW 01:41:15 10° NNE
STARLINK-1453 3.0 01:37:26 10° WSW 01:39:21 44° NW 01:41:16 10° NNE
STARLINK-1402 3.0 01:37:26 10° WSW 01:39:23 44° NW 01:41:17 10° NNE
STARLINK-1417 3.0 01:37:26 10° WSW 01:39:23 44° NW 01:41:17 10° NNE
STARLINK-1420 3.0 01:37:26 10° WSW 01:39:23 44° NW 01:41:19 10° NNE
STARLINK-1422 3.0 01:37:26 10° WSW 01:39:24 44° NW 01:41:21 10° NNE
STARLINK-1460 3.1 01:37:26 10° WSW 01:39:24 44° NW 01:41:21 10° NNE
STARLINK-1406 3.0 01:37:27 10° WSW 01:39:24 43° NW 01:41:18 10° NNE
STARLINK-1413 3.0 01:37:27 10° WSW 01:39:24 43° NW 01:41:18 10° NNE
STARLINK-1440 3.0 01:37:29 10° WSW 01:39:26 43° NW 01:41:20 10° NNE
STARLINK-1458 3.0 01:37:28 10° WSW 01:39:26 44° NW 01:41:22 10° NNE
STARLINK-1445 3.0 01:37:30 10° WSW 01:39:26 43° NW 01:41:21 10° NNE
STARLINK-1443 3.0 01:37:31 10° WSW 01:39:27 43° NW 01:41:22 10° NNE
STARLINK-1454 3.0 01:37:31 10° WSW 01:39:27 43° NW 01:41:22 10° NNE
STARLINK-1457 3.0 01:37:32 10° WSW 01:39:28 43° NW 01:41:23 10° NNE
STARLINK-1456 3.1 01:37:32 10° WSW 01:39:29 43° NW 01:41:23 10° NNE
STARLINK-1437 3.0 01:37:31 10° WSW 01:39:29 44° NW 01:41:25 10° NNE
STARLINK-1451 3.1 01:37:33 10° WSW 01:39:29 43° NW 01:41:23 10° NNE
STARLINK-1446 3.0 01:37:31 10° WSW 01:39:29 44° NW 01:41:26 10° NNE
STARLINK-1442 3.1 01:37:34 10° WSW 01:39:30 43° NW 01:41:24 10° NNE
STARLINK-1447 3.1 01:37:34 10° WSW 01:39:32 44° NW 01:41:29 10° NNE
STARLINK-1423 3.1 01:37:34 10° WSW 01:39:32 44° NW 01:41:28 10° NNE
STARLINK-1455 3.1 01:37:34 10° WSW 01:39:32 44° NW 01:41:29 10° NNE
STARLINK-1405 3.1 01:37:36 10° WSW 01:39:32 43° NW 01:41:27 10° NNE
STARLINK-1421 3.1 01:37:36 10° WSW 01:39:33 43° NW 01:41:27 10° NNE
STARLINK-1441 3.1 01:37:35 10° WSW 01:39:33 44° NW 01:41:30 10° NNE
STARLINK-1400 3.1 01:37:37 10° WSW 01:39:33 43° NW 01:41:27 10° NNE
STARLINK-1410 3.1 01:37:37 10° WSW 01:39:33 43° NW 01:41:27 10° NNE
STARLINK-1407 3.1 01:37:38 10° WSW 01:39:34 43° NW 01:41:28 10° NNE
STARLINK-1439 3.1 01:37:38 10° WSW 01:39:34 43° NW 01:41:28 10° NNE
STARLINK-1448 3.1 01:37:36 10° WSW 01:39:34 44° NW 01:41:31 10° NNE
STARLINK-1449 3.1 01:37:36 10° WSW 01:39:34 44° NW 01:41:31 10° NNE
STARLINK-1409 3.1 01:37:38 10° WSW 01:39:34 43° NW 01:41:29 10° NNE
STARLINK-1351 3.1 01:37:40 10° WSW 01:39:35 43° NW 01:41:30 10° NNE
STARLINK-1370 3.1 01:37:40 10° WSW 01:39:35 43° NW 01:41:30 10° NNE
STARLINK-1418 3.1 01:37:40 10° WSW 01:39:36 43° NW 01:41:30 10° NNE
STARLINK-1434 3.1 01:37:40 10° WSW 01:39:36 43° NW 01:41:30 10° NNE
STARLINK-1403 3.1 01:37:41 10° WSW 01:39:37 43° NW 01:41:31 10° NNE
STARLINK-1433 3.1 01:37:42 10° WSW 01:39:38 43° NW 01:41:32 10° NNE
STARLINK-1411 3.1 01:37:43 10° WSW 01:39:39 43° NW 01:41:34 10° NNE
STARLINK-1438 3.1 01:37:43 10° WSW 01:39:39 43° NW 01:41:34 10° NNE
STARLINK-1412 3.1 01:37:44 10° WSW 01:39:42 44° NW 01:41:39 10° NNE
Iridium 51 4.1 01:36:50 10° S 01:40:37 67° E 01:44:10 10° N
STARLINK-1100 4.4 01:39:15 10° NNW 01:43:10 40° NE 01:46:35 13° ESE
Cosmos 2297 3.7 01:38:07 10° SSW 01:43:45 74° ESE 01:49:27 10° NNE
NOSS 2-2 (E) 3.9 01:40:33 10° SW 01:44:06 54° WNW 01:47:39 10° NNE
Meteor 2-4 Rocket 3.7 01:41:31 10° S 01:46:52 82° W 01:52:14 10° N
STARLINK-1083 4.2 01:44:10 10° NNW 01:48:09 44° NE 01:51:21 15° ESE
COSMOS 2406 3.7 01:43:03 10° NNW 01:48:43 61° WSW 01:54:19 10° S
STARLINK-29 2.9 01:45:56 10° SW 01:49:10 90° ENE 01:52:23 10° NE
Cosmos 1140 Rocket 4.3 01:44:31 10° NNW 01:49:35 51° WSW 01:54:37 10° S
Cosmos 2369 Rocket 3.3 01:47:23 10° SSE 01:51:43 23° E 01:56:01 10° NE
STARLINK-1125 4.1 01:49:06 10° NNW 01:53:08 50° NE 01:56:09 17° ESE
Cosmos 2082 Rocket 2.5 01:48:12 10° N 01:53:44 50° ENE 01:58:17 15° SE
Cosmos 1975 3.3 01:50:41 10° NNW 01:54:37 60° W 01:58:32 10° S
USA 186 2.0 01:53:11 10° S 01:55:41 53° W 01:58:25 10° NNW
ISS -3.7 01:52:33 10° NW 01:55:55 72° NE 01:58:06 20° SE
STARLINK-1109 3.9 01:54:02 10° NNW 01:58:06 56° NE 02:00:55 19° ESE
MOS 1 4.3 01:56:55 10° SSE 02:02:38 86° WSW 02:08:21 10° NNW
STARLINK-1091 3.7 01:58:59 10° NW 02:03:05 64° NE 02:05:42 21° ESE
SJ-6B 2.7 02:00:22 10° S 02:04:04 80° WSW 02:07:48 10° NNW
USA 267 3.6 01:58:05 11° SSE 02:04:20 63° SW 02:10:50 10° NW
H-2A ROCKET BODY 3.1 02:02:33 10° SSW 02:06:12 33° SE 02:17:37 10° E
Sakura Rocket 3.9 02:02:24 10° W 02:07:45 73° S 02:13:42 16° ESE
STARLINK-1072 3.6 02:03:58 10° NW 02:08:06 72° NE 02:10:31 24° SE
Lacrosse 5 1.9 02:05:26 10° NW 02:10:29 79° SW 02:13:58 20° SSE
SL-08 RB Rocket 4.0 02:07:47 10° S 02:12:19 66° WSW 02:16:51 10° NNW
FALCON 9 R/B 2.4 02:10:58 10° SSW 02:11:46 15° SSW 02:11:46 15° SSW
STARLINK-1096 3.6 02:08:54 10° NW 02:13:02 82° NE 02:15:16 26° SE
ATLAS 2AS CENTAUR R/B 3.4 02:07:22 10° S 02:14:25 39° ESE 02:21:39 10° NE
Meteor 1-23 Rocket 4.3 02:10:51 10° S 02:16:25 58° E 02:21:57 10° NNE
STARLINK-1079 3.5 02:13:55 10° NW 02:18:04 89° SW 02:20:05 29° SE
Cosmos 1066 Rocket 4.1 02:13:28 10° S 02:18:41 58° E 02:23:56 10° NNE
MetOp-A 4.1 02:16:07 14° SSE 02:20:44 89° WSW 02:26:07 10° NNW
Cosmos 1634 Rocket 4.4 02:15:37 10° NNW 02:21:53 65° W 02:28:06 10° S
STARLINK-1116 3.6 02:18:53 10° NW 02:23:01 79° SW 02:24:52 32° SSE
COSMOS 2455 4.2 02:30:26 19° E 02:30:26 19° E 02:33:42 10° ENE
H-2A R/B 3.5 02:27:23 10° WSW 02:30:08 21° S 02:31:36 20° SSE
Milstar 3 Cent rocket 3.5 02:24:41 10° SW 02:31:12 55° SSE 02:44:34 10° E
STARLINK-1094 3.8 02:28:51 10° NW 02:32:56 61° SW 02:34:25 36° SSE
Spot 2 Rocket 4.4 02:35:32 28° E 02:36:48 32° ENE 02:41:13 10° N
STARLINK-1117 4.0 02:33:53 10° NW 02:37:55 53° SW 02:39:13 37° S
Cosmos 1741 Rocket 4.0 02:34:18 10° NNW 02:39:31 83° WSW 02:42:12 30° S
GPS 2-04 Rocket1 2.3 02:36:09 10° WNW 02:39:35 79° NNE 02:40:07 60° E
FALCON 9 DEB 4.1 02:37:11 10° WSW 02:40:28 47° NW 02:43:47 10° NNE
Okean 1 Rocket 3.4 02:36:41 10° N 02:40:55 45° E 02:41:35 41° ESE
STARLINK-1078 4.2 02:38:53 10° NW 02:42:52 47° SW 02:43:59 36° S
Cosmos 1850 Rocket 4.3 02:41:03 10° NNW 02:46:20 67° WSW 02:49:08 28° S
STARLINK-1108 4.4 02:43:56 10° WNW 02:47:49 41° SW 02:48:46 35° SSW
ASC 2 Rocket 4.3 02:43:14 10° SW 02:47:53 37° SSE 02:48:27 36° SSE
IGS 5A 4.4 02:48:39 31° ENE 02:48:39 31° ENE 02:52:16 10° NNE
Cosmos 2263 4.2 02:48:43 32° S 02:51:12 58° ESE 02:56:41 10° NNE
ATLAS CENTAUR R/B 1.6 02:52:16 53° ESE 02:52:16 53° ESE 02:56:17 10° NE
Okean 2 3.8 02:54:12 46° ENE 02:54:12 46° ENE 02:57:50 10° NNE
Terra 3.9 02:55:01 13° ENE 02:55:01 13° ENE 02:56:55 10° NE
Resurs 01 Rocket 1.9 02:54:43 38° S 02:56:17 66° W 03:00:42 10° NNW
SWIFT 4.3 02:53:25 10° SW 02:55:01 17° SW 02:55:01 17° SW
Centaur D-1A AC-32 4.0 02:49:09 10° W 02:59:04 28° SW 03:00:30 25° SSW
ASTRO E2 2.8 02:55:14 10° W 02:58:52 60° SW 02:58:52 60° SW
STARLINK-1112 4.4 02:56:15 10° NNW 03:00:08 38° NE 03:00:26 38° NE
Abrixas rocket 3.5 02:58:12 10° NW 03:00:09 34° NNW 03:00:09 34° NNW
APEX 4.4 02:54:57 10° SSW 03:01:49 88° ESE 03:07:36 10° NNE
Cosmos 1302 Rocket 4.3 02:57:39 11° SSW 03:02:44 66° WNW 03:08:01 10° N
Cosmos 1943 Rocket 3.0 02:57:25 10° SW 03:02:44 49° WNW 03:08:08 10° N
Cosmos 2026 Rocket 4.3 03:02:16 43° ESE 03:03:30 48° E 03:09:33 10° NNE
SPOT 1/Viking Rocket 4.0 03:03:36 42° E 03:04:06 43° ENE 03:08:56 10° N
STARLINK-1128 4.3 03:01:10 10° NNW 03:05:07 43° NE 03:05:13 43° NE
STARLINK-1365 3.9 03:02:43 10° SW 03:07:35 54° NE 03:10:45 10° NE
STARLINK-1113 4.2 03:06:07 10° NNW 03:10:01 48° NE 03:10:01 48° NE
STARLINK-1119 4.1 03:11:02 10° NNW 03:14:47 52° NNE 03:14:47 52° NNE
CENTAUR R/B 4.1 03:08:33 10° N 03:16:01 35° NE 03:19:27 26° E
Cosmos 1766 3.9 03:14:05 10° N 03:17:08 48° NNE 03:17:08 48° NNE
STARLINK-1114 4.1 03:16:00 10° NW 03:19:34 55° N 03:19:34 55° N
Cosmos 1992 Rocket 4.0 03:21:20 61° ENE 03:21:20 61° ENE 03:26:03 10° NNE
Cosmos 1656 Rocket 3.5 03:22:49 67° SSE 03:23:32 78° ESE 03:29:07 10° NNE
STARLINK-1130 (DARKSAT) 4.2 03:20:56 10° NW 03:24:21 55° N 03:24:21 55° N
Meteor 1-21 4.1 03:25:54 65° E 03:25:57 65° E 03:31:30 10° NNE
STARLINK-1084 4.3 03:25:54 10° NW 03:29:08 52° NNW 03:29:08 52° NNW
Cosmos 292 Rocket 4.5 03:30:53 38° WSW 03:32:19 51° WNW 03:37:03 10° N
STARLINK-1098 4.5 03:30:51 10° NW 03:33:54 48° NW 03:33:54 48° NW
Cosmos 2369 Rocket 3.6 03:30:13 10° SW 03:35:25 37° WNW 03:40:37 10° N
Cosmos 2082 Rocket 4.4 03:33:54 10° WNW 03:37:17 16° W 03:40:10 11° SW
NOSS 3-4 (A) 3.9 03:31:47 10° SW 03:37:32 54° WNW 03:43:29 10° NNE
SL-8 R/B 4.0 03:32:49 10° NW 03:37:06 62° N 03:37:06 62° N
NOSS 3-4 (C) 3.9 03:31:52 10° SW 03:37:38 55° WNW 03:43:36 10° NNE
ERS-1 Rocket 3.1 03:39:13 64° NE 03:39:13 64° NE 03:43:42 10° N
ATLAS 3B CENTAUR R/B 3.3 03:23:10 10° W 03:39:51 78° S 03:42:25 51° ESE
Cosmos 1975 Rocket 4.0 03:42:41 44° W 03:42:41 44° W 03:46:52 10° N
BREEZE-M DEB (TANK) 4.2 03:35:33 10° NW 03:43:41 38° NNE 03:44:45 34° NE
Landsat 7 4.5 03:47:05 49° W 03:47:05 49° W 03:51:28 10° NNW
Cosmos 968 Rocket 4.2 03:54:01 10° N 03:57:51 46° NNE 03:57:51 46° NNE
ATLAS 5 CENTAUR R/B 3.4 03:48:00 10° SW 03:59:10 55° WNW 04:02:38 10° NNE
ATLAS 2AS CENTAUR R/B 4.1 03:57:59 10° WSW 04:05:18 41° NW 04:12:46 10° NNE
COSMOS 2455 3.6 04:13:27 39° WSW 04:14:58 47° WNW 04:20:45 10° NNE
NOSS 3-2 (A) 4.2 04:07:19 10° NW 04:15:16 65° WSW 04:16:18 60° SSW
SPOT 5 4.1 04:25:37 40° WNW 04:25:37 40° WNW 04:29:42 10° NNW
USA 238 DEB 4.3 04:22:30 10° NW 04:29:29 49° WSW 04:29:29 49° WSW
USA 238 4.3 04:22:36 10° NW 04:29:36 50° WSW 04:29:36 50° WSW
ATLAS CENTAUR R/B 4.5 04:29:12 10° W 04:31:09 13° NW 04:33:03 10° NNW
Terra 3.4 04:33:54 32° NW 04:33:54 32° NW 04:36:40 10° NNW
SeaSat 1 4.3 04:48:06 10° NNE 04:50:08 25° NNE 04:50:08 25° NNE
CENTAUR R/B 3.6 04:58:49 10° NW 05:06:37 54° WSW 05:06:37 54° WSW
Milstar 3 Cent rocket 4.3 05:01:00 10° W 05:11:31 83° S 05:35:53 10° E
ATLAS 3B R/B 3.1 05:07:28 10° NNW 05:13:00 60° NNW 05:13:00 60° NNW
Cosmos 2227 Rocket 4.1 05:27:11 10° N 05:30:28 22° NE 05:30:28 22° NE
FALCON 9 R/B 4.1 05:53:12 32° ENE 05:53:12 32° ENE 06:00:19 10° E
CZ-4C R/B 3.9 06:00:11 26° N 06:00:11 26° N 06:02:50 10° NNE
Cosmos 1980 Rocket 4.0 06:12:34 25° NE 06:12:34 25° NE 06:15:02 10° NNE
SJ 16-02 4.1 06:11:53 10° N 06:12:51 16° N 06:12:51 16° N
Cosmos 2297 Rocket 3.8 06:32:33 10° NNW 06:35:10 28° NNW 06:35:10 28° NNW
USA 215 4.4 06:35:30 26° E 06:38:20 38° NE 06:44:16 10° NNW
SL-16 R/B 4.4 06:39:30 18° E 06:41:03 20° ENE 06:45:21 10° NNE
Cosmos 2322 Rocket 4.3 06:49:46 18° ENE 06:49:46 18° ENE 06:52:07 10° NE
Cosmos 1697 Rocket 4.3 06:57:30 27° NW 06:57:30 27° NW 07:00:55 10° N
Cosmos 2285 Rocket 4.5 06:58:39 10° N 07:03:42 56° NNE 07:03:42 56° NNE
Resurs 1-4 Rocket 3.3 07:09:27 10° NNE 07:13:02 39° NE 07:13:02 39° NE
Cosmos 2227 Rocket 4.2 07:10:32 10° NW 07:12:15 19° NW 07:12:15 19° NW
SL-16 R/B 3.0 07:24:07 46° ENE 07:24:07 46° ENE 07:28:19 10° NNE
Cosmos 2074 Rocket 4.2 07:24:26 66° NE 07:24:26 66° NE 07:29:54 10° N
BREEZE-M DEB (TANK) 3.8 07:41:43 47° N 07:41:43 47° N 07:49:39 10° NE
CZ-2D R/B 2.7 07:37:56 10° N 07:41:49 51° N 07:41:49 51° N
Cosmos 2360 Rocket 3.3 07:46:14 35° E 07:46:14 35° E 07:51:07 10° NE
Cosmos 2184 Rocket 4.1 07:48:41 62° NW 07:48:41 62° NW 07:54:05 10° N
Cosmos 2327 Rocket 4.4 07:50:48 86° ENE 07:50:48 86° ENE 07:57:11 10° N
Cosmos 1980 Rocket 4.1 07:54:20 18° NW 07:54:20 18° NW 07:57:41 10° NNW
Cosmos 1610 Rocket 4.3 07:57:00 87° N 07:57:00 87° N 08:03:04 10° N
Cosmos 2333 Rocket 4.5 07:55:20 12° ESE 07:57:15 14° E 07:59:57 10° ENE
CBERS-1 4.2 07:57:56 10° NNE 08:02:33 68° NE 08:02:33 68° NE
Cosmos 2219 Rocket 4.4 08:02:25 12° ESE 08:04:32 15° E 08:07:30 10° ENE
Timation 1 Rocket 4.3 08:00:21 10° NNW 08:05:50 74° NW 08:05:50 74° NW
Lacrosse 5 rocket 4.1 08:09:53 11° ESE 08:09:53 11° ESE 08:10:18 10° E
IRIDIUM 106 4.2 08:18:51 86° E 08:18:51 86° E 08:24:05 10° N
Cosmos 962 Rocket 4.4 08:18:04 62° SSE 08:19:07 79° E 08:25:18 10° N
Cosmos 2263 Rocket 2.1 08:13:43 10° NNW 08:19:19 84° ENE 08:19:55 72° SE
USA 215 3.7 08:22:46 41° W 08:22:46 41° W 08:27:26 10° NW
Cosmos 2154 Rocket 4.1 08:21:54 56° W 08:22:07 56° W 08:28:14 10° N
SL-16 R/B 2.8 08:24:35 50° W 08:24:35 50° W 08:30:09 10° NNW
STARLINK-1007 4.3 08:25:30 52° NNE 08:25:30 52° NNE 08:28:42 10° NE
ADEOS II 1.9 08:19:47 10° NNE 08:25:03 86° WNW 08:25:17 82° SW
CZ-4B R/B 4.3 08:20:39 10° N 08:25:12 40° WNW 08:25:12 40° WNW
STARLINK-1048 4.2 08:30:16 55° NNE 08:30:16 55° NNE 08:33:39 10° NE
IDEFIX/ARIANE 42P 4.2 08:25:26 10° NE 08:29:57 29° E 08:32:34 19° SE
Cosmos 1408 3.6 08:31:51 43° N 08:31:51 43° N 08:34:26 10° N
Cosmos 2322 Rocket 2.8 08:31:35 39° WNW 08:31:44 39° WNW 08:36:59 10° N
Cosmos 1825 3.0 08:32:28 47° ENE 08:32:28 47° ENE 08:35:40 10° NNE
Cosmos 2221 3.4 08:28:17 10° NNW 08:31:16 39° NW 08:31:16 39° NW
IRS-1D 3.8 08:27:43 10° N 08:32:45 53° WNW 08:32:45 53° WNW
In-Cosmos 22 Rocket 4.3 08:33:14 54° W 08:33:22 54° W 08:38:47 10° N
STARLINK-1049 4.1 08:35:03 56° N 08:35:03 56° N 08:38:37 10° NE
IRS-1C 4.0 08:32:10 10° N 08:37:31 81° WNW 08:38:18 65° SW
STARLINK-1051 4.1 08:39:48 54° NNW 08:39:48 54° NNW 08:43:32 10° NNE
ARIANE 5 R/B 2.4 08:35:43 10° NNE 08:40:43 78° ESE 08:41:40 58° S
Skynet4D Del rocket 4.4 08:47:34 37° S 08:47:34 37° S 08:52:06 10° SE
Cosmos 2058 4.4 08:48:46 26° NW 08:48:46 26° NW 08:51:24 10° NNW
STARLINK-1028 4.2 08:49:23 44° NW 08:49:27 44° NW 08:53:25 10° NNE
STARLINK-1010 4.4 08:52:24 39° NW 08:52:43 39° NW 08:56:42 10° NNE
Cosmos 2366 rocket 4.0 08:50:31 31° S 08:53:42 78° E 08:59:58 10° N
Delta 2 Rocket 4.0 08:52:38 46° SSW 08:53:53 53° S 08:59:42 10° E
Resurs 1-4 Rocket 4.0 08:51:06 10° NNW 08:53:57 15° WNW 08:54:06 15° WNW
STARLINK-1021 4.4 08:54:13 39° NW 08:54:29 39° NW 08:58:23 10° NNE
Nadezhda 3 Rocket 4.4 08:50:28 10° NNW 08:56:26 45° W 08:57:47 40° WSW
CZ-3A R/B 4.0 08:54:52 14° SSE 08:57:01 17° SE 09:03:25 10° E
BREEZE-M TANK 3.3 09:00:18 35° SSE 09:00:45 37° SE 09:03:34 10° ENE
GEOS 3 Rocket 3.5 08:55:42 10° SSE 09:00:49 84° WSW 09:06:04 10° NNW
COBE Rocket 3.9 09:02:52 25° SSE 09:05:50 89° WSW 09:10:58 10° N
STARLINK-1060 4.4 09:05:49 35° SSE 09:06:45 40° SE 09:10:37 10° ENE
SL-16 R/B 4.0 09:05:59 15° WNW 09:07:12 16° WNW 09:10:34 10° NNW
Cosmos 1125 Rocket 4.5 09:02:58 10° NW 09:06:47 29° W 09:06:47 29° W
COSMOS 2428 3.1 09:06:25 24° S 09:09:43 59° ESE 09:15:17 10° NNE
Spot 4 Rocket 4.0 09:05:42 10° N 09:10:49 73° WNW 09:12:58 35° SSW
STARLINK-1030 4.3 09:10:36 36° S 09:11:42 45° SE 09:15:40 10° NE
Cosmos 1818 4.2 09:10:05 24° S 09:13:05 51° ESE 09:18:21 10° NE
Cosmos 1844 Rocket 3.7 09:08:49 10° N 09:14:10 46° ENE 09:19:29 10° SE
Cosmos 1408 Rocket 3.9 09:11:56 24° SSE 09:14:23 61° E 09:18:38 10° NNE
STARLINK-1020 4.1 09:15:24 36° S 09:16:40 52° SE 09:20:42 10° NE
USA 229 DEB 3.9 09:09:34 10° NW 09:16:53 58° WSW 09:24:23 10° S
USA 229 3.9 09:09:40 10° NW 09:16:59 59° WSW 09:24:31 10° SSE
Meteor 1-28 Rocket 3.0 09:16:03 39° S 09:17:20 76° W 09:21:05 10° NNW
Cosmos 1538 Rocket 4.1 09:15:42 35° SW 09:17:49 60° WNW 09:23:08 10° N
NOSS 3-1 (C) 4.3 09:10:32 10° NW 09:18:26 54° WSW 09:27:02 10° S
STARLINK-1052 3.9 09:20:10 36° SSW 09:21:38 59° SE 09:25:42 10° NE
Cosmos 864 Rocket 4.5 09:18:52 27° SSW 09:22:13 61° W 09:28:17 10° N
STARLINK-60 3.5 09:21:07 10° NW 09:24:16 57° NE 09:27:25 10° SE
CZ-2D R/B 4.0 09:21:27 10° N 09:25:34 45° WNW 09:27:01 32° WSW
SL-4 R/B 2.7 09:21:11 10° NW 09:25:52 63° NE 09:30:15 10° SE
NOSS 3-1 (A) 4.2 09:18:10 10° NNW 09:26:17 74° WSW 09:35:11 10° SSE
SL-08 R/B 3.6 09:25:18 31° SW 09:26:51 41° W 09:31:13 10° NNW
Cosmos 1727 Rocket 4.3 09:20:51 10° N 09:26:59 67° E 09:33:06 10° SSE
Cosmos 2360 Rocket 3.5 09:28:00 20° W 09:30:02 24° WNW 09:34:33 10° N
ERS-2 2.1 09:29:06 28° S 09:30:50 60° WSW 09:34:27 10° NNW
H-2A R/B 2.0 09:26:30 10° SSE 09:30:52 85° WSW 09:35:20 10° NNW
Cosmos 1766 Rocket 4.0 09:30:07 31° SW 09:31:32 41° W 09:35:37 10° N
STARLINK-1033 3.6 09:29:45 32° SSW 09:31:34 76° SE 09:35:42 10° NE
Okean 3 Rocket 4.4 09:30:43 29° WSW 09:32:03 35° W 09:36:14 10° NNW
STARLINK-1444 3.6 09:30:23 10° NNW 09:32:38 40° NE 09:35:01 10° ESE
STARLINK-1452 3.6 09:31:00 10° NNW 09:33:16 41° NE 09:35:39 10° ESE
Cosmos 1606 2.7 09:30:22 10° N 09:34:08 83° E 09:37:55 10° S
STARLINK-1450 3.5 09:31:56 10° NNW 09:34:09 42° NE 09:36:29 10° ESE
FUSE 4.3 09:31:38 26° WSW 09:34:16 48° S 09:39:28 10° ESE
STARLINK-1392 3.4 09:32:07 10° NNW 09:34:20 42° NE 09:36:41 10° ESE
STARLINK-1415 3.4 09:32:07 10° NNW 09:34:20 42° NE 09:36:42 10° ESE
STARLINK-1399 3.4 09:32:08 10° NNW 09:34:21 42° NE 09:36:43 10° ESE
STARLINK-1394 3.4 09:32:08 10° NNW 09:34:22 43° NE 09:36:43 10° ESE
STARLINK-1395 3.4 09:32:09 10° NNW 09:34:22 43° NE 09:36:44 10° ESE
STARLINK-1393 3.4 09:32:09 10° NNW 09:34:23 43° NE 09:36:44 10° ESE
STARLINK-1401 3.4 09:32:09 10° NNW 09:34:23 43° NE 09:36:44 10° ESE
STARLINK-1396 3.4 09:32:10 10° NNW 09:34:23 43° NE 09:36:45 10° ESE
STARLINK-1397 3.4 09:32:10 10° NNW 09:34:23 43° NE 09:36:45 10° ESE
STARLINK-1453 3.4 09:32:10 10° NNW 09:34:24 43° NE 09:36:45 10° ESE
STARLINK-1404 3.4 09:32:11 10° NNW 09:34:24 43° NE 09:36:46 10° ESE
STARLINK-1417 3.4 09:32:13 10° NNW 09:34:26 43° NE 09:36:48 10° ESE
STARLINK-1402 3.4 09:32:13 10° NNW 09:34:26 43° NE 09:36:48 10° ESE
STARLINK-1413 3.4 09:32:14 10° NNW 09:34:27 43° NE 09:36:49 10° ESE
STARLINK-1406 3.4 09:32:14 10° NNW 09:34:28 43° NE 09:36:49 10° ESE
STARLINK-1440 3.4 09:32:16 10° NNW 09:34:29 43° NE 09:36:51 10° ESE
STARLINK-1414 3.4 09:32:15 10° NNW 09:34:30 43° NE 09:36:54 10° ESE
STARLINK-1445 3.4 09:32:17 10° NNW 09:34:30 43° NE 09:36:52 10° ESE
STARLINK-1443 3.4 09:32:17 10° NNW 09:34:31 43° NE 09:36:53 10° ESE
STARLINK-1454 3.4 09:32:18 10° NNW 09:34:31 43° NE 09:36:53 10° ESE
STARLINK-1416 3.4 09:32:16 10° NNW 09:34:32 43° NE 09:36:56 10° ESE
STARLINK-1457 3.4 09:32:19 10° NNW 09:34:32 43° NE 09:36:54 10° ESE
STARLINK-1408 3.4 09:32:17 10° NNW 09:34:33 43° NE 09:36:56 10° ESE
STARLINK-1456 3.4 09:32:19 10° NNW 09:34:33 43° NE 09:36:55 10° ESE
STARLINK-1451 3.4 09:32:20 10° NNW 09:34:33 43° NE 09:36:55 10° ESE
STARLINK-1442 3.4 09:32:21 10° NNW 09:34:34 43° NE 09:36:56 10° ESE
STARLINK-1436 (VISORSAT) 3.4 09:32:20 10° NNW 09:34:35 43° NE 09:37:00 10° ESE
STARLINK-1419 3.4 09:32:21 10° NNW 09:34:36 43° NE 09:37:01 10° ESE
STARLINK-1405 3.4 09:32:24 10° NNW 09:34:37 43° NE 09:36:59 10° ESE
STARLINK-1421 3.4 09:32:24 10° NNW 09:34:37 43° NE 09:36:59 10° ESE
STARLINK-1398 3.4 09:32:21 10° NNW 09:34:38 43° NE 09:37:02 10° ESE
STARLINK-1410 3.4 09:32:25 10° NNW 09:34:38 43° NE 09:37:00 10° ESE
STARLINK-1400 3.4 09:32:25 10° NNW 09:34:38 43° NE 09:37:00 10° ESE
STARLINK-1407 3.4 09:32:26 10° NNW 09:34:39 43° NE 09:37:01 10° ESE
STARLINK-1439 3.4 09:32:26 10° NNW 09:34:39 43° NE 09:37:01 10° ESE
STARLINK-1409 3.4 09:32:27 10° NNW 09:34:40 43° NE 09:37:02 10° ESE
STARLINK-1351 3.4 09:32:28 10° NNW 09:34:41 43° NE 09:37:03 10° ESE
STARLINK-1370 3.4 09:32:28 10° NNW 09:34:41 43° NE 09:37:03 10° ESE
STARLINK-1422 3.4 09:32:25 10° NNW 09:34:41 43° NE 09:37:05 10° ESE
STARLINK-1418 3.4 09:32:28 10° NNW 09:34:41 43° NE 09:37:03 10° ESE
STARLINK-1420 3.4 09:32:26 10° NNW 09:34:41 43° NE 09:37:06 10° ESE
STARLINK-1434 3.4 09:32:28 10° NNW 09:34:41 43° NE 09:37:03 10° ESE
STARLINK-1403 3.4 09:32:29 10° NNW 09:34:42 43° NE 09:37:04 10° ESE
STARLINK-1460 3.4 09:32:28 10° NNW 09:34:43 44° NE 09:37:08 10° ESE
STARLINK-1433 3.4 09:32:31 10° NNW 09:34:43 43° NE 09:37:06 10° ESE
STARLINK-1411 3.4 09:32:32 10° NNW 09:34:46 43° NE 09:37:07 10° ESE
STARLINK-1438 3.4 09:32:33 10° NNW 09:34:46 43° NE 09:37:08 10° ESE
STARLINK-1458 3.4 09:32:31 10° NNW 09:34:47 44° NE 09:37:12 10° ESE
STARLINK-1423 3.4 09:32:34 10° NNW 09:34:50 44° NE 09:37:14 10° ESE
STARLINK-1446 3.4 09:32:35 10° NNW 09:34:51 44° NE 09:37:16 10° ESE
STARLINK-1437 3.4 09:32:36 10° NNW 09:34:52 44° NE 09:37:16 10° ESE
STARLINK-1447 3.4 09:32:38 10° NNW 09:34:55 44° NE 09:37:19 10° ESE
STARLINK-1455 3.4 09:32:38 10° NNW 09:34:55 44° NE 09:37:20 10° ESE
STARLINK-1441 3.4 09:32:40 10° NNW 09:34:56 44° NE 09:37:21 10° ESE
STARLINK-1448 3.4 09:32:43 10° NNW 09:34:59 44° NE 09:37:24 10° ESE
STARLINK-1449 3.4 09:32:44 10° NNW 09:35:01 44° NE 09:37:26 10° ESE
STARLINK-1412 3.4 09:32:53 10° NNW 09:35:10 44° NE 09:37:35 10° ESE
Cosmos 2151 4.3 09:34:37 22° W 09:35:17 23° WNW 09:38:43 10° NNW
Cosmos 1151 Rocket 3.1 09:32:04 10° N 09:36:28 81° E 09:40:49 10° S
STARLINK-1031 3.5 09:34:32 29° SW 09:36:32 86° SE 09:40:41 10° NE
deb Chang Zheng 4 3.9 09:33:09 10° NNE 09:37:22 61° E 09:41:22 11° S
CZ-2C R/B 3.1 09:35:08 10° N 09:38:47 46° WNW 09:40:31 27° SW
Cosmos 2333 Rocket 2.4 09:37:21 22° SW 09:40:52 58° WNW 09:46:28 10° N
STARLINK-1024 3.5 09:39:18 27° SW 09:41:30 84° NW 09:45:39 10° NE
Cosmos 1515 Rocket 4.3 09:40:53 10° N 09:45:09 52° E 09:49:21 10° SSE
STARLINK-1035 3.6 09:44:06 24° SW 09:46:29 75° NW 09:50:37 10° NE
Lacrosse 5 rocket 1.6 09:45:32 23° WSW 09:47:51 53° NW 09:51:42 10° NNE
Cosmos 2219 Rocket 2.4 09:44:09 20° SW 09:47:54 53° WNW 09:53:22 10° N
Cosmos 2112 Rocket 4.3 09:45:52 10° S 09:51:03 69° ESE 09:56:19 10° NNE
STARLINK-1032 3.7 09:48:52 22° SW 09:51:26 66° NW 09:55:34 10° NE
BREEZE-M DEB (TANK) 3.8 09:47:52 16° WSW 09:52:04 42° NW 09:55:01 10° NE
STARLINK-1037 3.8 09:52:08 20° WSW 09:54:50 60° NW 09:58:55 10° NE
STARLINK-1011 3.8 09:53:38 19° WSW 09:56:25 58° NW 10:00:30 10° NE
STARLINK-29 3.8 09:53:29 10° NNW 09:56:35 52° NE 09:59:41 10° SE
Cosmos 2344 3.6 09:50:02 14° SW 09:56:52 76° WNW 10:04:27 10° NNE
Cosmos 1633 2.4 09:54:09 11° S 09:57:34 79° W 10:01:11 10° N
ATLAS 5 CENTAUR R/B 1.3 09:57:35 16° SW 10:00:43 74° WNW 10:04:58 10° NNE
STARLINK-1036 4.0 09:58:26 17° WSW 10:01:25 52° NW 10:05:28 10° NNE
USA 32 4.0 09:57:50 10° S 10:03:03 80° W 10:08:18 10° N
CZ-2C R/B 2.6 09:58:11 10° NNE 10:03:24 84° ESE 10:08:31 10° S
Cosmos 1743 Rocket 3.5 09:59:51 10° SSW 10:04:13 66° W 10:08:35 10° N
STARLINK-1044 4.2 10:03:13 15° WSW 10:06:24 46° NW 10:10:24 10° NNE
CZ-4B R/B 1.8 10:04:54 10° SSE 10:07:54 58° ENE 10:10:56 10° N
IDEFIX/ARIANE 42P 3.7 10:05:03 10° NNW 10:09:21 26° WNW 10:13:23 11° WSW
Cosmos 1346 Rocket 2.7 10:06:12 10° S 10:10:12 79° W 10:14:11 10° N
STARLINK-1047 4.4 10:07:59 13° WSW 10:11:22 41° NW 10:15:18 10° NNE
Meteor 2-3 Rocket 4.3 10:06:28 10° SSW 10:11:34 39° WNW 10:16:46 10° N
Cosmos 1844 3.8 10:09:54 10° NNW 10:15:36 60° WSW 10:21:14 10° S
Cosmos 1980 3.7 10:11:59 10° SSW 10:17:38 87° WNW 10:23:19 10° NNE
ALOS 3.9 10:16:05 10° NNE 10:20:19 34° E 10:24:33 10° SSE
ADEOS 3.6 10:17:48 10° N 10:23:00 72° WNW 10:28:11 10° SSW
Cosmos 158 Rocket 4.2 10:20:13 10° SSW 10:25:08 49° WNW 10:29:57 10° N
Cosmos 1680 Rocket 4.1 10:24:21 10° SW 10:29:15 39° WNW 10:34:12 10° N
Cosmos 1340 4.0 10:27:01 10° SW 10:30:00 22° WNW 10:33:00 10° NNW
SL-24 R/B - RUBIN 2 4.4 10:24:35 10° SW 10:30:03 63° WNW 10:36:16 10° NNE
